Location: LDNL
(36.4545°S, 141.6685°E)
Time: 11:56:56
(UTC+10:00)

Vanguard 3 - Pass Details

Date: 01 February 2022
Orbit: 508 x 3258 km, 33.3° (Epoch: 25 May)

Event Time Altitude Azimuth Distance (km) Brightness Sun altitude
Rises 04:18:00 0° 262° (W) 4,771 - -25.5°
Reaches altitude 10° 04:20:40 10° 265° (W) 4,085 - -25.2°
Exits shadow 04:21:45 15° 267° (W) 3,830 10.2 -25.0°
Maximum altitude 04:32:19 62° 342° (NNW) 2,753 9.4 -23.6°
Drops below altitude 10° 04:50:42 10° 56° (NE) 6,133 11.7 -21.0°
Sets 04:55:47 0° 58° (ENE) 7,219 12.2 -20.2°
